WA9NNN-10 Weather Reports


Display with metric or nautical units.
time (UTC)temp
F
wind
direction
speed
MPH
gust
MPH
rain 1hr
in
rain 24hr
in
rain mn
in
humidity
%
barometer
mb
20260901080330 77 215 1.0 1.0 0.00 0.67 0.00 86 1013.6
20260901075831 77 214 1.0 2.0 0.00 0.67 0.00 87 1013.5
20260901075331 77 213 1.0 2.0 0.00 0.67 0.00 87 1013.6
20260901074831 77 209 2.0 2.0 0.00 0.67 0.00 87 1013.5
20260901074330 77 209 2.0 2.0 0.00 0.67 0.00 87 1013.5
20260901073831 77 193 2.0 2.0 0.00 0.67 0.00 88 1013.4
20260901073330 77 210 2.0 2.0 0.00 0.67 0.00 88 1013.5
20260901072831 77 210 2.0 2.0 0.00 0.67 0.00 88 1013.6
20260901072331 77 205 1.0 1.0 0.00 0.67 0.00 88 1013.4
20260901070831 77 0 0.0 0.0 0.00 0.67 0.00 87 1013.4
20260901070340 77 205 1.0 0.0 0.00 0.67 0.00 87 1013.4
20260901065831 77 0 0.0 0.0 0.00 0.67 0.00 87 1013.4
20260901065330 77 0 0.0 0.0 0.00 0.67 0.00 87 1013.4
20260901064831 77 0 0.0 0.0 0.00 0.67 0.00 87 1013.3
20260901064331 77 0 0.0 0.0 0.00 0.67 0.00 86 1013.2
20260901063831 77 0 0.0 0.0 0.00 0.67 0.00 86 1013.1
20260901063330 77 0 0.0 0.0 0.00 0.67 0.00 86 1013.2
20260901062831 77 0 0.0 0.0 0.00 0.67 0.00 86 1013.2
20260901061831 77 0 0.0 0.0 0.00 0.67 0.00 86 1013.1
20260901061331 77 0 0.0 0.0 0.00 0.67 0.00 86 1013.1
20260901060330 78 0 0.0 0.0 0.00 0.67 0.00 86 1013.2
20260901055331 78 0 0.0 0.0 0.00 0.67 0.00 86 1013.4
20260901054831 78 0 0.0 0.0 0.00 0.67 0.00 86 1013.4
20260901054331 78 0 0.0 0.0 0.00 0.67 0.00 86 1013.4
20260901053831 78 0 0.0 0.0 0.00 0.67 0.00 86 1013.5
20260901052330 78 0 0.0 0.0 0.00 0.67 0.00 86 1013.3
20260901051831 78 0 0.0 1.0 0.00 0.67 0.00 86 1013.4
20260901051330 78 205 1.0 1.0 0.00 0.67 0.00 86 1013.4
20260901050831 78 0 0.0 1.0 0.00 0.67 0.00 86 1013.3
20260901050331 78 205 1.0 1.0 0.00 0.67 0.00 86 1013.3
20260901045830 78 205 3.0 1.0 0.00 0.67 0.67 86 1013.3
20260901045330 79 0 0.0 1.0 0.00 0.67 0.67 86 1013.3
20260901044831 79 225 1.0 1.0 0.00 0.67 0.67 86 1013.2
20260901044330 79 197 1.0 1.0 0.00 0.67 0.67 86 1013.2
20260901043831 79 180 1.0 1.0 0.00 0.67 0.67 86 1013.2
20260901043331 79 179 1.0 1.0 0.00 0.67 0.67 86 1013.3
20260901042831 79 181 2.0 1.0 0.00 0.67 0.67 86 1013.3
20260901042332 79 207 2.0 1.0 0.00 0.67 0.67 86 1013.4
20260901041830 79 210 1.0 1.0 0.00 0.67 0.67 86 1013.4
20260901041330 79 191 1.0 1.0 0.00 0.67 0.67 86 1013.4
20260901040832 79 0 0.0 1.0 0.00 0.67 0.67 86 1013.5
20260901040330 79 191 1.0 2.0 0.00 0.67 0.67 86 1013.5
20260901035831 79 209 2.0 2.0 0.00 0.68 0.67 86 1013.6
20260901035330 79 212 2.0 1.0 0.00 0.68 0.67 86 1013.4
20260901034830 79 212 1.0 2.0 0.00 0.68 0.67 86 1013.5
20260901034331 79 212 2.0 2.0 0.00 0.68 0.67 86 1013.4
20260901033830 79 219 2.0 2.0 0.00 0.68 0.67 86 1013.4
20260901033330 79 224 2.0 2.0 0.00 0.68 0.67 86 1013.5
20260901032831 79 224 1.0 2.0 0.00 0.68 0.67 86 1013.5
20260901032330 79 210 4.0 2.0 0.00 0.68 0.67 86 1013.5
20260901031830 79 191 1.0 2.0 0.00 0.68 0.67 86 1013.5
20260901031330 79 217 1.0 2.0 0.00 0.68 0.67 87 1013.6
20260901030830 79 219 1.0 2.0 0.00 0.68 0.67 87 1013.5
20260901030330 79 204 2.0 2.0 0.00 0.68 0.67 87 1013.5
20260901025830 79 201 2.0 2.0 0.00 0.68 0.67 87 1013.5
20260901025330 79 217 1.0 2.0 0.00 0.68 0.67 87 1013.4
20260901024830 79 199 2.0 2.0 0.00 0.68 0.67 87 1013.6
20260901024330 79 186 1.0 2.0 0.00 0.68 0.67 87 1013.8
20260901023831 79 217 1.0 1.0 0.00 0.68 0.67 87 1014.0
20260901022830 80 217 2.0 1.0 0.00 0.68 0.67 87 1013.9
20260901022330 80 217 1.0 1.0 0.00 0.68 0.67 87 1013.9
20260901021831 80 0 0.0 1.0 0.00 0.68 0.67 88 1013.9
20260901020831 80 217 1.0 1.0 0.00 0.68 0.67 88 1013.7
20260901020330 80 217 1.0 0.0 0.00 0.68 0.67 88 1013.9
20260901015830 80 0 0.0 0.0 0.00 0.68 0.67 88 1014.0
20260901015330 80 0 0.0 1.0 0.00 0.68 0.67 88 1013.8
20260901014830 80 217 2.0 2.0 0.00 0.68 0.67 88 1013.7
20260901013830 80 207 1.0 2.0 0.00 0.68 0.67 88 1013.6
20260901013330 80 219 1.0 2.0 0.00 0.68 0.67 88 1013.6
20260901012832 80 220 2.0 2.0 0.00 0.68 0.67 88 1013.4
20260901012330 80 221 2.0 1.0 0.00 0.68 0.67 88 1013.4
20260901011830 80 191 2.0 1.0 0.00 0.68 0.67 88 1013.4
20260901011331 80 0 0.0 2.0 0.00 0.68 0.67 88 1013.4
20260901010830 80 218 2.0 3.0 0.00 0.68 0.67 88 1013.4
20260901010330 80 215 4.0 3.0 0.00 0.68 0.67 88 1013.4
20260901005830 80 198 2.0 2.0 0.00 0.68 0.67 88 1013.4
20260901005330 80 218 2.0 2.0 0.00 0.68 0.67 88 1013.5
20260901004830 80 207 2.0 1.0 0.00 0.68 0.67 88 1013.6
20260901003831 80 0 0.0 0.0 0.00 0.68 0.67 88 1013.3
20260901003330 80 0 0.0 0.0 0.00 0.68 0.67 88 1013.3
20260901002330 80 0 0.0 0.0 0.00 0.68 0.67 87 1013.1
20260901001830 80 0 0.0 0.0 0.00 0.68 0.67 87 1013.1
20260901001330 80 0 0.0 0.0 0.00 0.68 0.67 87 1013.1
20260901000830 80 0 0.0 0.0 0.00 0.68 0.67 87 1012.9
20260901000330 80 0 0.0 0.0 0.00 0.68 0.67 87 1012.8
20260831235330 81 0 0.0 1.0 0.00 0.69 0.67 87 1013.0
20260831234830 81 0 0.0 1.0 0.00 0.69 0.67 87 1013.0
20260831234330 81 212 1.0 1.0 0.00 0.69 0.67 87 1013.2
20260831233830 81 212 2.0 2.0 0.00 0.69 0.67 87 1013.3
20260831233330 81 212 1.0 2.0 0.00 0.69 0.67 87 1013.4
20260831232830 81 212 2.0 2.0 0.01 0.69 0.67 87 1013.4
20260831232330 81 212 2.0 2.0 0.02 0.69 0.67 87 1013.3
20260831231831 81 212 2.0 3.0 0.04 0.69 0.67 87 1013.2
20260831231330 81 216 3.0 3.0 0.05 0.69 0.67 88 1013.2
20260831230831 81 219 2.0 3.0 0.06 0.69 0.67 88 1013.0
20260831230331 81 220 3.0 2.0 0.09 0.69 0.67 88 1013.1
20260831225832 81 225 2.0 2.0 0.09 0.71 0.67 88 1013.0
20260831225331 81 196 2.0 3.0 0.10 0.71 0.67 88 1012.9
20260831224832 81 187 2.0 2.0 0.21 0.71 0.67 87 1012.8
20260831224331 81 195 3.0 2.0 0.21 0.71 0.67 87 1013.0
20260831223831 82 220 2.0 1.0 0.21 0.71 0.67 87 1013.0
20260831223331 82 221 1.0 1.0 0.21 0.71 0.67 87 1013.1
20260831222831 82 0 0.0 1.0 0.20 0.70 0.66 86 1013.2
20260831222331 82 0 0.0 1.0 0.19 0.69 0.65 86 1013.2
20260831221832 82 220 1.0 0.0 0.16 0.66 0.62 86 1013.4
20260831221331 82 0 0.0 0.0 0.16 0.66 0.62 85 1013.2
20260831220331 82 0 0.0 1.0 0.12 0.62 0.58 85 1012.9
20260831215831 82 165 1.0 1.0 0.12 0.62 0.58 84 1012.9
20260831215332 82 161 1.0 1.0 0.11 0.61 0.57 85 1013.0
20260831214831 82 0 0.0 1.0 0.01 0.50 0.46 85 1013.8
20260831213831 83 322 2.0 0.0 0.01 0.50 0.46 86 1013.1
20260831213331 83 0 0.0 0.0 0.01 0.50 0.46 86 1012.6
20260831212831 83 0 0.0 1.0 0.01 0.50 0.46 87 1012.4
20260831212331 82 0 0.0 1.0 0.02 0.50 0.46 87 1012.6
20260831211831 82 184 1.0 1.0 0.02 0.50 0.46 87 1012.7
20260831211331 81 0 0.0 1.0 0.06 0.50 0.46 88 1012.8
20260831210831 81 316 1.0 0.0 0.07 0.50 0.46 87 1013.0
20260831210331 81 316 1.0 0.0 0.07 0.50 0.46 87 1013.3
20260831205831 80 0 0.0 1.0 0.07 0.50 0.46 86 1013.5
20260831205331 80 342 1.0 1.0 0.06 0.49 0.45 86 1014.1
20260831204831 81 335 2.0 1.0 0.07 0.49 0.45 86 1013.8
20260831204331 80 278 1.0 1.0 0.09 0.49 0.45 86 1013.6
20260831203831 80 274 1.0 1.0 0.09 0.49 0.45 86 1013.6
20260831202831 80 0 0.0 1.0 0.09 0.49 0.45 85 1013.4
20260831202331 80 216 1.0 0.0 0.12 0.48 0.44 85 1013.1
20260831201330 80 0 0.0 1.0 0.16 0.44 0.40 84 1012.8
20260831200831 80 0 0.0 2.0 0.15 0.43 0.39 83 1012.7
20260831200330 80 216 1.0 2.0 0.15 0.43 0.39 83 1012.6
20260831195831 80 194 2.0 2.0 0.15 0.43 0.39 81 1012.4
20260831195332 80 206 2.0 2.0 0.15 0.43 0.39 80 1012.5
20260831194831 81 168 2.0 3.0 0.13 0.41 0.37 78 1012.8
20260831193831 82 321 5.0 2.0 0.12 0.40 0.36 76 1013.3
20260831193333 83 0 0.0 2.0 0.12 0.40 0.36 74 1012.9
20260831192831 83 215 4.0 4.0 0.12 0.40 0.36 71 1012.7
20260831192331 84 224 7.0 5.0 0.08 0.36 0.32 69 1012.8
20260831191831 85 228 10.0 6.0 0.01 0.29 0.25 67 1013.0
20260831191331 86 191 6.0 6.0 0.00 0.28 0.24 65 1013.0
20260831190831 87 196 5.0 7.0 0.00 0.28 0.24 62 1012.7
20260831190331 89 194 8.0 7.0 0.00 0.28 0.24 58 1012.6
20260831185831 90 207 9.0 7.0 0.00 0.28 0.24 56 1012.9
20260831185331 91 238 9.0 7.0 0.00 0.28 0.24 56 1013.0
20260831184831 91 219 8.0 6.0 0.00 0.28 0.24 55 1013.0
20260831184331 90 222 6.0 6.0 0.00 0.28 0.24 56 1013.0
20260831183831 90 197 7.0 6.0 0.00 0.28 0.24 56 1013.0
20260831183330 90 207 7.0 7.0 0.00 0.28 0.24 55 1013.0
20260831182831 91 174 7.0 7.0 0.00 0.28 0.24 54 1013.0
20260831182330 91 189 9.0 7.0 0.00 0.28 0.24 54 1013.0
20260831181831 90 153 7.0 7.0 0.00 0.28 0.24 55 1012.9
20260831181331 90 176 6.0 8.0 0.00 0.28 0.24 55 1013.0
20260831180831 90 177 8.0 6.0 0.00 0.28 0.24 55 1013.0
20260831180330 90 185 5.0 5.0 0.00 0.28 0.24 56 1013.2
20260831175831 89 167 5.0 6.0 0.00 0.28 0.24 58 1013.3
20260831175330 88 226 3.0 6.0 0.00 0.28 0.24 60 1013.4
20260831174831 87 196 5.0 7.0 0.00 0.28 0.24 59 1013.5
20260831174330 87 245 9.0 6.0 0.00 0.28 0.24 61 1013.6
20260831173831 87 182 4.0 6.0 0.00 0.28 0.24 62 1013.7
20260831173330 86 212 7.0 6.0 0.00 0.28 0.24 64 1013.9
20260831172831 85 240 3.0 6.0 0.00 0.28 0.24 66 1014.0
20260831172330 84 221 4.0 7.0 0.00 0.28 0.24 67 1014.1
20260831171831 83 217 6.0 7.0 0.00 0.28 0.24 68 1014.2
20260831171331 82 226 7.0 5.0 0.00 0.28 0.24 69 1014.3
20260831170831 82 227 3.0 5.0 0.00 0.28 0.24 70 1014.3
20260831170330 81 186 4.0 5.0 0.00 0.28 0.24 71 1014.5
20260831165831 81 223 8.0 5.0 0.00 0.28 0.24 72 1014.6
20260831165330 80 254 3.0 5.0 0.00 0.28 0.24 74 1014.6
20260831164831 79 207 9.0 5.0 0.00 0.28 0.24 76 1014.6
20260831164330 79 0 0.0 4.0 0.00 0.28 0.24 76 1014.8
20260831163332 78 200 1.0 4.0 0.00 0.28 0.24 79 1014.9
20260831162831 78 182 2.0 4.0 0.00 0.28 0.24 80 1014.9
20260831162330 77 228 3.0 3.0 0.00 0.28 0.24 82 1014.9
20260831161831 76 198 1.0 3.0 0.01 0.28 0.24 83 1015.0
20260831160831 75 0 0.0 4.0 0.04 0.28 0.24 85 1015.1
20260831160330 75 193 5.0 3.0 0.04 0.28 0.24 86 1015.0
20260831155831 75 190 3.0 3.0 0.04 0.28 0.24 88 1015.0
20260831155331 74 185 3.0 3.0 0.04 0.28 0.24 88 1015.0
20260831154831 74 174 4.0 3.0 0.04 0.28 0.24 88 1015.0
20260831154330 73 186 2.0 3.0 0.04 0.28 0.24 88 1015.2
20260831153831 73 229 3.0 3.0 0.04 0.28 0.24 88 1015.3
20260831153330 73 182 2.0 3.0 0.04 0.28 0.24 88 1015.3
20260831152831 73 0 0.0 2.0 0.04 0.28 0.24 88 1015.4
20260831151331 73 184 4.0 3.0 0.00 0.24 0.20 88 1015.6
20260831150831 73 182 5.0 2.0 0.00 0.24 0.20 89 1015.6
20260831150330 73 192 2.0 2.0 0.00 0.24 0.20 88 1015.5
20260831145831 73 218 2.0 1.0 0.00 0.24 0.20 89 1015.4
20260831145331 72 201 2.0 2.0 0.01 0.24 0.20 89 1015.4
20260831144831 72 184 1.0 2.0 0.01 0.24 0.20 89 1015.4
20260831144331 72 182 2.0 2.0 0.01 0.24 0.20 89 1015.4
20260831143831 72 165 1.0 2.0 0.01 0.24 0.20 89 1015.5
20260831143331 72 190 3.0 1.0 0.01 0.24 0.20 89 1015.5
20260831142830 72 198 2.0 1.0 0.01 0.24 0.20 89 1015.7
20260831142330 72 142 2.0 1.0 0.02 0.24 0.20 89 1015.5
20260831141831 72 0 0.0 2.0 0.04 0.24 0.20 89 1015.7
20260831141331 72 58 2.0 2.0 0.13 0.24 0.20 88 1015.6
20260831140831 72 167 3.0 1.0 0.14 0.24 0.20 88 1015.7
20260831140330 72 0 0.0 0.0 0.14 0.24 0.20 88 1015.8
20260831135831 72 0 0.0 0.0 0.15 0.36 0.20 88 1016.1
20260831135330 72 0 0.0 0.0 0.14 0.35 0.19 88 1016.2
20260831134831 72 0 0.0 0.0 0.14 0.35 0.19 87 1016.3
20260831134330 72 0 0.0 0.0 0.14 0.35 0.19 87 1016.2
20260831133831 72 0 0.0 1.0 0.14 0.35 0.19 87 1016.2
20260831133330 72 173 2.0 1.0 0.14 0.35 0.19 87 1016.1
20260831132831 72 88 1.0 1.0 0.14 0.35 0.19 87 1016.1
20260831132330 72 115 1.0 1.0 0.13 0.34 0.18 86 1016.4
20260831131830 72 97 1.0 1.0 0.10 0.31 0.15 86 1016.3
20260831131331 73 184 2.0 1.0 0.03 0.22 0.06 86 1016.6
20260831130831 73 0 0.0 1.0 0.03 0.22 0.06 85 1016.4
20260831130330 73 1 1.0 1.0 0.03 0.22 0.06 85 1016.3
20260831125831 73 0 0.0 0.0 0.02 0.27 0.05 84 1015.9
20260831125331 73 0 0.0 0.0 0.02 0.27 0.05 84 1016.1
20260831124831 73 0 0.0 0.0 0.03 0.27 0.05 84 1015.9
20260831124330 73 0 0.0 0.0 0.03 0.27 0.05 83 1016.0
20260831123830 73 56 1.0 0.0 0.03 0.27 0.05 83 1016.0
20260831123330 73 0 0.0 0.0 0.05 0.27 0.05 83 1015.8
20260831122831 73 0 0.0 1.0 0.05 0.27 0.05 82 1015.6
20260831122331 73 0 0.0 1.0 0.05 0.27 0.05 82 1015.6
20260831121831 74 0 0.0 0.0 0.05 0.27 0.05 81 1015.5
20260831121330 74 0 0.0 0.0 0.03 0.25 0.03 81 1015.4
20260831120831 74 0 0.0 1.0 0.03 0.25 0.03 79 1015.5
20260831120331 75 0 0.0 1.0 0.03 0.25 0.03 78 1015.5
20260831115831 75 0 0.0 2.0 0.03 0.26 0.03 77 1015.2
20260831115330 75 356 2.0 1.0 0.03 0.26 0.03 76 1015.5
20260831114830 76 277 2.0 0.0 0.02 0.25 0.02 74 1015.2
20260831114331 76 0 0.0 1.0 0.02 0.25 0.02 74 1015.0
20260831113831 76 0 0.0 2.0 0.02 0.25 0.02 72 1014.9
20260831113331 76 217 2.0 3.0 0.00 0.23 0.00 71 1014.6
20260831112831 76 195 3.0 3.0 0.00 0.23 0.00 71 1014.3
20260831112330 76 200 3.0 4.0 0.00 0.23 0.00 71 1014.1
20260831111830 76 242 6.0 4.0 0.00 0.23 0.00 71 1013.9
20260831111330 76 185 3.0 4.0 0.00 0.23 0.00 71 1013.7
20260831110831 76 172 6.0 3.0 0.00 0.23 0.00 71 1013.8
20260831110330 76 214 3.0 2.0 0.00 0.23 0.00 71 1013.9
20260831105830 76 185 1.0 3.0 0.00 0.23 0.00 71 1013.8
20260831105330 76 171 4.0 5.0 0.00 0.23 0.00 71 1013.8
20260831104831 76 234 6.0 4.0 0.00 0.23 0.00 71 1013.9
20260831104330 76 207 5.0 4.0 0.00 0.23 0.00 71 1013.9
20260831103830 76 210 4.0 4.0 0.00 0.23 0.00 71 1013.9
20260831103330 76 221 5.0 4.0 0.00 0.23 0.00 71 1013.9
20260831102830 76 226 3.0 4.0 0.00 0.23 0.00 71 1013.8
20260831102331 76 233 3.0 4.0 0.00 0.23 0.00 71 1013.8
20260831101830 76 184 5.0 4.0 0.00 0.23 0.00 72 1013.8
20260831101331 76 233 3.0 4.0 0.00 0.23 0.00 72 1013.8
20260831100830 76 193 3.0 4.0 0.00 0.23 0.00 72 1013.7
20260831100330 76 200 4.0 4.0 0.00 0.23 0.00 73 1013.7
20260831095830 76 127 4.0 3.0 0.00 0.23 0.00 73 1013.8
20260831095330 76 187 1.0 3.0 0.00 0.23 0.00 74 1013.9
20260831094831 76 193 5.0 2.0 0.00 0.23 0.00 74 1013.9
20260831094331 76 179 3.0 3.0 0.00 0.23 0.00 74 1013.9
20260831093831 76 0 0.0 2.0 0.00 0.23 0.00 74 1013.9
20260831093330 76 168 2.0 3.0 0.00 0.23 0.00 74 1014.0
20260831092831 76 198 5.0 3.0 0.00 0.23 0.00 74 1014.1
20260831092330 76 210 3.0 3.0 0.00 0.23 0.00 75 1014.0
20260831091831 76 191 3.0 3.0 0.00 0.23 0.00 75 1014.2
20260831091330 76 215 2.0 2.0 0.00 0.23 0.00 75 1014.3
20260831090831 76 172 2.0 2.0 0.00 0.23 0.00 75 1014.2
20260831090330 76 203 2.0 2.0 0.00 0.23 0.00 75 1014.1
20260831085831 76 193 2.0 2.0 0.00 0.23 0.00 75 1014.2
20260831085330 76 191 3.0 2.0 0.00 0.23 0.00 75 1014.3
20260831084830 76 172 7.0 2.0 0.00 0.23 0.00 75 1014.3
20260831084330 76 173 4.0 2.0 0.00 0.23 0.00 75 1014.3
20260831083830 76 202 1.0 2.0 0.00 0.23 0.00 76 1014.3
20260831083330 76 191 2.0 2.0 0.00 0.23 0.00 76 1014.3
20260831082831 76 224 3.0 1.0 0.00 0.23 0.00 76 1014.2
20260831082330 76 167 2.0 1.0 0.00 0.23 0.00 76 1014.1
20260831081831 76 0 0.0 1.0 0.00 0.23 0.00 76 1014.2